Simultaneous Nadir Overpasses (SNOs) Predictions

Prediction of SNOs between LANDSAT-8 and METOP-A Satellite Orbit:

Table of predicted SNOs for the next 14.0 days since TLE Epoch: 1/29/2017
Index Date (LANDSAT-8) Time (LANDSAT-8) Lat,Lon (LANDSAT-8) SZA (LANDSAT-8 ) Date (METOP-A) Time (METOP-A) Lat,Lon (METOP-A) SZA (METOP-A ) Distance(km) Time Diff (sec)
1 01/31/2017 01:51:33 -81.15, 12.16 79.84 01/31/2017 01:51:26 -81.14, 12.14 79.85 0.71 7
2 01/31/2017 02:40:59 81.15, 179.90 100.17 01/31/2017 02:42:06 81.16, 179.85 100.19 1.00 67
3 02/02/2017 20:36:20 81.12, -89.42 99.31 02/02/2017 20:35:08 81.12, -89.48 99.27 1.09 72
4 02/02/2017 21:25:46 -81.14, 78.53 80.67 02/02/2017 21:25:47 -81.14, 78.46 80.67 1.31 1
5 02/02/2017 22:14:37 81.74, -99.91 101.15 02/02/2017 22:15:50 81.34, -99.37 100.98 44.97 73
6
